Wetbulb
67.06 66.20 63.18 57.13 50.10 51.23 50.91 53.69 57.59 56.93 57.47 60.35 61.40 60.55 61.71 64.76 63.96 63.79 75.41 76.08 77.29 78.06 78.14 77.38 78.26 78.44 78.01 77.70 77.32 76.87 76.26 76.34 76.24 76.62 76.42 76.77 77.07 77.55 77.40 77.27 77.10 77.19 76.99 76.73 76.39 75.70 74.83 74.50 74.52
66.61 63.70 59.00 53.64 46.69 46.02 50.08 55.57 55.62 58.25 59.58 60.25 60.07 60.66 60.15 61.87 65.80 71.61 73.57 76.70 77.59 78.49 77.97 77.18 78.02 78.06 77.88 77.43 77.04 76.59 76.42 76.22 76.34 76.54 76.47 76.82 77.32 77.32 77.47 77.22 76.97 76.20 76.40 76.45 76.06 75.27 74.50 74.28 74.26
65.95 61.39 54.29 50.36 47.66 45.10 48.33 55.09 57.25 59.02 60.82 59.56 59.00 60.41 60.70 62.39 69.40 71.68 76.04 77.34 78.13 78.01 77.90 77.96 78.00 77.88 77.73 77.42 76.69 76.39 76.37 76.29 76.47 76.49 76.77 76.94 77.27 77.39 77.27 77.15 76.89 75.93 75.01 74.83 74.51 74.36 74.31 74.35 74.19
60.98 57.44 55.12 48.87 47.48 49.94 50.23 53.15 56.54 57.37 59.59 61.02 60.35 57.79 61.79 73.44 72.62 74.38 76.29 77.15 78.34 77.50 77.58 77.21 77.62 77.65 77.57 77.45 77.07 76.61 76.54 76.47 76.29 76.52 76.84 76.97 77.27 77.04 76.86 77.07 76.97 76.11 75.05 74.51 74.26 74.24 74.19 74.08 73.71
59.82 55.52 49.32 48.21 48.14 50.89 53.61 54.67 55.46 54.54 56.79 59.56 60.15 58.20 60.40 71.52 73.45 76.55 76.54 76.78 77.74 77.95 77.56 77.08 77.32 77.54 77.62 77.50 77.24 76.71 76.49 75.99 75.97 76.62 76.79 76.94 76.86 76.71 76.97 76.75 76.11 75.92 75.60 75.13 74.33 73.94 73.74 73.69 72.93
53.62 53.78 47.86 46.99 49.22 51.86 53.56 55.23 54.20 53.93 54.91 57.19 59.20 59.49 61.13 72.63 72.13 74.95 76.74 77.41 78.18 77.67 77.50 76.59 77.00 76.98 76.91 77.04 76.91 76.48 76.08 75.99 76.06 76.47 76.52 76.66 76.66 76.76 76.59 76.24 75.81 75.40 75.06 74.53 73.95 73.30 73.31 72.83 72.15
53.08 50.68 47.19 48.42 49.28 51.31 53.37 56.26 54.13 53.50 53.44 54.62 59.17 57.00 61.39 68.39 73.57 75.88 76.99 78.03 78.09 77.74 77.11 75.35 75.38 77.06 76.86 76.60 76.52 76.25 75.90 75.91 75.91 76.05 76.33 76.42 76.50 76.43 76.14 75.84 75.56 75.03 74.32 73.71 73.21 72.69 72.44 72.29 72.24
53.27 52.09 48.41 49.18 47.99 49.53 54.64 55.44 55.91 54.20 53.34 57.54 58.87 55.23 57.32 68.94 75.37 76.31 77.31 77.57 77.62 77.50 76.17 73.78 74.44 74.35 75.79 76.75 76.28 76.15 75.98 75.95 75.92 76.07 76.07 76.04 75.86 75.71 75.36 75.25 74.84 74.03 73.65 73.24 72.65 72.20 71.99 72.03 72.64
55.01 47.79 45.86 47.64 48.83 50.87 54.88 53.89 56.14 56.39 54.30 55.62 56.87 58.19 60.82 71.62 72.95 74.02 75.80 76.33 76.46 76.37 75.60 73.88 72.40 72.29 72.65 73.71 75.95 75.71 75.74 75.96 75.72 75.62 75.58 74.46 73.59 73.84 74.43 74.83 74.72 73.98 73.55 73.13 72.56 72.58 72.68 73.12 73.82
49.26 46.86 47.30 51.07 51.84 51.40 53.06 53.88 54.60 53.00 53.00 53.21 55.06 57.39 58.76 62.36 71.08 72.15 73.66 74.45 75.23 75.02 75.19 74.23 72.75 72.06 72.09 71.73 74.28 73.46 73.90 73.42 72.17 72.60 73.90 72.17 73.07 73.17 73.07 74.36 74.26 73.98 73.95 73.77 73.67 73.42 73.39 72.92 70.42
48.21 45.53 48.85 49.98 51.64 52.16 51.57 52.89 55.00 53.05 51.91 53.56 53.04 55.84 57.47 58.08 67.90 70.04 73.32 74.96 75.18 75.69 75.41 74.59 74.64 74.77 72.70 72.39 71.57 71.82 71.40 71.11 72.72 73.09 73.94 74.04 73.53 73.76 72.53 73.53 71.90 72.93 73.51 72.42 72.45 71.91 70.93 71.98 72.61
44.75 47.54 48.74 49.29 50.32 50.62 51.10 53.94 53.12 53.72 53.84 55.98 56.37 56.75 57.47 57.02 60.94 67.79 70.24 74.02 75.41 75.73 75.77 74.95 74.67 75.24 75.51 74.08 71.21 71.72 70.36 70.94 71.95 72.72 74.38 76.05 73.67 74.18 72.79 72.17 71.14 72.41 71.57 72.02 72.45 71.26 73.88 74.15 73.82
46.58 47.22 48.03 48.48 48.65 49.52 51.62 51.98 51.93 52.57 55.58 57.00 56.76 56.79 56.56 57.76 59.02 67.78 70.14 71.86 75.41 74.91 75.41 75.59 75.51 75.64 77.32 76.50 73.14 73.58 72.96 71.48 72.43 73.09 74.16 74.43 73.50 74.20 72.81 72.71 71.88 72.23 71.53 71.93 71.79 72.28 74.41 74.61 74.34
48.80 47.80 47.69 48.58 48.32 48.63 47.55 49.74 51.13 52.41 55.11 55.75 56.62 56.48 56.80 57.55 58.72 61.42 70.33 71.36 74.96 74.63 75.48 76.32 75.74 76.75 75.99 76.12 77.16 75.84 75.91 74.72 74.10 73.61 73.86 74.56 74.63 75.49 72.36 72.95 71.87 71.38 71.64 72.43 73.21 73.27 74.09 74.28 74.91
49.18 45.77 47.43 47.57 47.85 47.14 48.69 45.21 46.40 51.25 53.54 54.17 54.86 56.29 57.13 58.17 59.22 59.88 63.49 71.93 74.85 74.86 75.51 76.56 76.50 76.21 77.19 76.38 76.32 76.31 75.46 74.95 74.16 74.19 75.38 74.38 75.16 75.71 76.14 71.41 71.17 71.09 73.53 74.48 74.72 75.06 74.74 74.54 74.69
45.60 46.02 41.66 46.32 47.04 47.60 47.34 41.44 47.33 50.46 50.64 51.09 53.02 54.93 56.40 57.82 57.97 60.13 61.31 69.37 75.51 75.17 74.65 76.34 76.22 74.72 77.53 77.73 76.44 75.75 75.28 74.89 74.83 74.86 75.37 74.97 74.67 74.74 73.87 71.33 71.17 71.16 73.83 73.59 73.12 73.69 74.17 74.84 73.25
45.15 40.13 41.82 42.84 47.05 46.37 46.45 43.47 47.60 50.40 50.34 49.80 51.44 53.33 54.57 56.88 58.59 60.70 61.45 65.86 74.33 74.89 75.17 74.44 75.14 74.84 75.97 78.62 76.81 77.45 78.38 75.54 74.90 75.02 75.28 75.73 74.98 73.67 72.98 70.72 70.95 74.46 72.84 73.38 75.13 74.47 73.99 72.26 71.31
40.63 40.86 41.85 41.65 45.00 45.62 44.22 44.19 47.52 49.46 49.84 50.30 50.80 52.29 53.83 55.29 57.65 59.98 61.52 63.34 71.46 76.07 74.96 74.92 73.74 75.65 75.82 77.10 77.36 76.11 75.93 75.35 74.76 74.45 74.86 76.08 74.79 73.23 72.87 71.90 74.38 74.38 73.77 74.56 74.88 73.67 72.09 70.19 68.50
44.71 42.89 42.22 44.00 46.07 44.37 44.64 44.16 46.21 49.41 49.19 49.77 50.34 52.36 53.73 55.45 58.20 59.39 60.37 62.07 69.97 75.91 74.76 73.77 74.52 75.20 75.25 75.15 74.56 74.55 73.48 74.16 73.53 74.31 75.91 75.54 74.16 72.94 73.52 72.27 75.09 74.64 71.71 72.43 72.83 71.86 69.84 67.89 67.79
43.27 41.63 41.75 44.94 46.10 44.62 44.84 44.07 46.74 47.76 48.41 50.21 50.94 52.67 54.05 55.64 57.83 58.78 59.94 62.17 72.31 75.12 73.87 74.21 75.34 75.62 75.84 75.22 75.97 74.66 74.06 73.36 73.48 74.50 75.22 74.80 73.96 74.09 73.15 74.82 73.10 71.48 69.18 69.45 69.30 68.29 67.71 67.63 66.84
43.39 41.67 41.30 41.73 44.97 46.19 44.41 42.26 45.34 47.65 49.12 49.47 51.28 52.90 54.30 55.26 57.12 58.73 59.45 65.24 73.82 73.37 73.51 74.20 75.58 76.11 76.54 76.38 76.05 75.88 75.52 74.79 72.72 73.25 72.99 74.15 74.44 74.78 74.65 73.84 72.04 70.06 68.51 66.52 65.43 65.74 65.18 64.64 66.45
39.91 45.02 43.84 42.64 40.78 37.24 43.63 34.62 43.35 46.39 46.97 48.10 49.14 51.37 53.11 54.95 57.33 58.94 59.66 67.09 73.61 72.57 73.50 74.57 76.12 74.61 75.95 77.85 75.15 75.45 72.14 70.66 72.50 72.86 73.36 73.47 73.92 73.38 73.07 71.71 69.74 68.55 69.08 67.53 66.58 65.98 65.20 64.73 63.50
41.79 46.30 43.99 43.44 41.64 39.16 40.94 36.00 41.69 46.54 44.96 46.98 48.73 49.79 52.09 54.77 56.84 58.29 59.48 69.46 72.74 72.38 73.29 74.64 73.77 75.29 75.27 76.56 76.13 74.04 73.05 69.42 70.18 70.70 71.71 71.78 71.67 71.12 70.96 69.79 68.65 67.95 67.04 65.47 62.46 63.24 63.66 62.94 61.53
46.39 44.09 43.88 43.18 39.09 33.02 39.15 37.07 39.28 41.82 45.24 47.33 49.69 50.19 51.28 53.49 55.75 58.55 61.40 70.63 73.07 72.69 73.40 73.32 73.26 74.98 75.50 76.38 76.40 73.74 68.65 68.02 68.53 70.06 69.54 68.10 69.11 68.94 68.71 68.32 67.24 67.61 67.51 66.23 64.94 63.14 63.15 62.98 62.31
43.93 39.21 32.00 30.62 31.62 31.79 40.99 37.40 41.02 46.43 48.00 48.77 49.26 50.24 51.38 52.95 55.31 57.86 59.82 70.82 73.11 70.61 73.74 73.32 73.67 73.28 75.09 75.08 73.86 71.23 70.92 70.83 70.61 70.21 66.06 67.39 66.87 66.85 65.66 67.13 66.84 66.20 65.48 64.52 63.97 63.20 62.82 62.31 60.89
40.15 38.82 31.36 25.18 29.43 34.01 41.26 35.94 41.34 48.71 49.88 50.26 50.31 51.70 52.22 52.34 55.53 57.71 59.43 70.93 70.92 72.34 73.61 72.40 73.08 72.98 73.63 73.60 72.41 72.04 71.95 71.36 70.16 67.36 68.02 67.15 65.51 65.24 66.60 65.86 65.48 63.03 63.27 62.70 62.89 61.94 61.42 61.58 60.68
37.92 34.95 40.87 33.65 37.62 33.90 37.96 39.88 46.60 47.83 47.76 49.00 49.20 51.01 52.01 52.51 56.21 57.97 59.48 68.25 69.21 72.88 72.06 73.00 73.38 73.36 72.94 72.90 73.40 71.66 73.55 71.39 68.60 68.99 69.63 65.69 65.45 65.25 65.75 64.31 62.89 62.60 62.39 62.51 62.79 61.37 61.17 60.80 60.47
40.12 42.58 33.38 34.40 27.35 26.31 33.23 35.84 36.72 43.17 45.66 47.87 48.56 49.38 52.19 53.48 55.58 58.02 59.36 61.93 70.12 71.25 71.96 73.46 73.57 72.61 72.89 72.73 71.73 72.08 71.38 70.38 69.27 68.37 65.75 66.90 66.49 65.49 64.07 62.91 62.16 61.78 61.48 61.54 61.56 60.86 60.47 60.35 60.01
38.21 35.30 36.92 38.65 36.62 30.17 29.35 34.26 43.18 44.36 47.05 48.18 49.15 50.31 53.02 53.79 55.70 58.01 64.49 61.45 68.20 69.48 70.59 70.73 71.07 71.91 71.04 69.46 69.22 68.81 68.55 67.96 67.17 66.68 66.75 66.16 65.53 64.29 62.39 61.91 61.63 61.12 60.66 61.04 61.10 60.56 60.03 59.76 60.31
42.18 39.99 38.82 34.40 32.83 36.72 35.12 35.42 45.08 46.52 47.64 49.36 49.92 51.58 54.61 55.22 57.09 62.91 66.91 62.82 67.60 68.22 69.43 69.44 69.48 67.70 67.26 68.52 68.12 67.30 66.86 66.06 65.69 65.42 64.98 65.13 63.56 62.78 61.82 61.31 60.24 59.86 59.80 60.59 59.90 59.10 59.88 59.62 59.01
MSLP
1010.17 1009.11 1007.86 1006.58 1005.25 1001.99 998.89 997.11 995.91 994.61 994.53 995.11 995.41 995.59 995.31 995.40 996.18 998.45 1000.22 1000.99 1001.10 1002.61 1004.28 1005.61 1006.39 1006.83 1007.13 1007.51 1008.07 1008.45 1008.88 1009.28 1009.71 1010.29 1010.79 1011.07 1011.38 1011.72 1011.92 1012.19 1012.39 1012.49 1012.67 1012.96 1013.24 1013.45 1013.63 1013.85 1014.05
1008.57 1007.83 1007.21 1005.31 1003.21 999.98 997.19 996.32 994.84 994.43 994.84 995.28 995.84 996.11 995.99 995.96 996.46 998.83 999.93 1000.96 1001.66 1002.82 1004.17 1005.14 1006.41 1006.93 1007.35 1007.79 1008.27 1008.76 1009.10 1009.54 1009.96 1010.51 1011.04 1011.34 1011.61 1011.92 1012.18 1012.43 1012.65 1012.83 1013.00 1013.17 1013.39 1013.63 1013.91 1014.21 1014.37
1008.71 1007.58 1006.14 1003.88 1001.55 999.01 996.73 995.11 994.29 994.31 995.43 995.54 996.00 995.92 995.89 996.25 997.44 998.11 999.64 1000.86 1001.90 1003.02 1004.07 1004.92 1006.43 1006.99 1007.45 1007.97 1008.45 1008.91 1009.36 1009.81 1010.23 1010.78 1011.17 1011.51 1011.83 1012.09 1012.29 1012.66 1012.95 1013.08 1013.30 1013.53 1013.75 1013.99 1014.24 1014.34 1014.45
1007.77 1007.07 1005.83 1002.60 999.87 998.30 997.25 996.02 994.29 994.07 995.14 995.65 995.82 995.67 996.37 997.60 998.12 998.81 1000.15 1000.99 1001.93 1002.89 1003.94 1005.67 1006.48 1007.05 1007.71 1008.05 1008.57 1009.06 1009.59 1010.03 1010.52 1011.07 1011.39 1011.65 1012.03 1012.31 1012.62 1012.91 1013.15 1013.42 1013.59 1013.84 1014.10 1014.26 1014.40 1014.49 1014.66
1007.29 1005.45 1003.62 1001.16 999.41 998.22 996.90 996.13 995.65 995.40 995.84 995.53 995.87 995.86 996.35 997.90 998.93 999.56 1000.31 1000.95 1001.70 1002.71 1003.69 1005.75 1006.60 1007.20 1007.89 1008.25 1008.74 1009.21 1009.78 1010.27 1010.74 1011.25 1011.57 1011.83 1012.23 1012.61 1012.83 1013.13 1013.40 1013.67 1013.89 1014.08 1014.28 1014.48 1014.58 1014.70 1014.85
1006.20 1004.92 1002.33 999.93 998.69 997.49 996.85 996.53 996.55 996.11 996.50 995.95 995.43 995.81 996.33 997.87 998.63 999.53 1000.31 1000.86 1001.75 1002.61 1003.94 1005.72 1006.92 1007.55 1008.06 1008.37 1008.85 1009.42 1009.96 1010.48 1010.95 1011.43 1011.75 1012.13 1012.50 1012.81 1013.07 1013.40 1013.56 1013.81 1014.04 1014.25 1014.45 1014.56 1014.68 1014.81 1014.86
1005.50 1003.69 1001.35 999.87 998.19 996.63 995.99 996.03 995.85 996.66 996.58 996.13 995.75 996.10 996.26 997.24 998.35 999.35 1000.33 1001.03 1001.72 1002.85 1004.15 1005.87 1006.77 1007.50 1008.36 1008.75 1008.99 1009.54 1010.07 1010.64 1011.16 1011.63 1011.99 1012.42 1012.81 1013.04 1013.26 1013.57 1013.77 1013.99 1014.24 1014.40 1014.55 1014.65 1014.79 1014.85 1014.97
1005.52 1004.09 1001.54 999.63 998.39 996.73 996.16 995.56 995.77 997.15 996.85 997.01 996.35 996.70 996.52 997.09 998.90 999.56 1000.09 1000.89 1001.70 1002.99 1004.31 1005.76 1006.44 1007.13 1008.11 1008.97 1009.51 1009.95 1010.41 1010.96 1011.31 1011.77 1012.16 1012.62 1012.93 1013.21 1013.44 1013.71 1013.88 1014.09 1014.31 1014.47 1014.58 1014.76 1014.85 1014.93 1014.91
1005.55 1004.05 1001.11 999.85 998.82 997.68 997.14 996.05 995.95 997.30 997.73 997.23 996.65 996.70 997.25 998.79 999.36 999.48 999.78 1000.62 1001.48 1002.81 1004.30 1005.36 1006.05 1006.77 1007.07 1008.22 1009.51 1010.28 1011.05 1011.33 1011.51 1011.81 1012.32 1012.67 1012.31 1012.86 1013.38 1013.23 1013.77 1014.04 1014.33 1014.51 1014.58 1014.73 1014.87 1014.84 1014.61
1005.25 1003.49 1001.72 1001.02 999.51 998.49 997.71 996.74 996.95 997.48 997.88 997.48 997.08 997.03 997.30 998.16 999.67 999.67 999.71 1000.06 1001.01 1002.25 1003.74 1004.98 1005.95 1006.58 1007.18 1007.83 1009.37 1009.88 1010.63 1010.96 1011.09 1011.40 1012.10 1011.85 1011.60 1012.26 1012.31 1013.29 1013.90 1014.10 1014.28 1014.42 1014.46 1014.61 1014.64 1014.45 1013.15
1004.99 1003.60 1003.10 1001.73 1000.84 1000.11 998.90 998.05 997.92 997.62 997.35 997.56 997.26 997.14 997.52 997.99 999.21 999.53 999.82 999.79 1000.49 1001.75 1003.00 1004.19 1005.57 1006.45 1006.74 1007.61 1009.08 1009.45 1010.09 1010.43 1010.82 1011.18 1011.75 1011.31 1011.23 1012.05 1012.15 1012.87 1013.45 1013.57 1014.05 1013.62 1013.99 1014.09 1013.76 1012.65 1012.55
1004.95 1004.38 1003.94 1003.31 1002.71 1001.65 1000.50 1000.18 998.91 998.64 998.34 997.98 997.57 997.39 997.28 997.75 998.24 999.30 999.32 999.49 1000.00 1001.04 1002.33 1003.66 1004.97 1006.10 1006.53 1007.33 1008.46 1008.94 1009.55 1010.18 1010.50 1010.88 1011.49 1011.14 1011.43 1012.02 1011.77 1011.69 1012.07 1012.46 1012.58 1012.38 1012.65 1012.19 1012.50 1012.93 1012.82
1004.79 1004.49 1004.10 1003.67 1003.59 1002.79 1002.31 1001.33 1001.10 1000.32 999.68 999.35 998.50 997.97 997.52 997.90 998.62 998.73 999.35 999.27 999.65 1000.57 1001.95 1003.15 1004.75 1005.95 1006.55 1007.39 1007.95 1008.41 1008.89 1009.67 1010.01 1010.71 1011.37 1011.02 1011.13 1011.63 1011.59 1011.47 1011.34 1011.73 1011.62 1011.97 1012.08 1012.16 1012.34 1012.29 1012.21
1005.20 1004.55 1004.24 1004.24 1003.83 1003.24 1002.80 1002.53 1002.63 1001.42 1001.00 1000.20 999.79 998.97 998.61 998.67 999.04 999.15 999.08 999.45 999.96 1000.82 1002.05 1002.84 1004.43 1005.95 1006.59 1007.11 1007.53 1008.08 1008.51 1009.09 1009.58 1010.25 1010.85 1011.03 1011.35 1011.63 1011.73 1011.71 1011.82 1011.59 1011.54 1011.47 1011.67 1011.92 1012.10 1011.95 1012.01
1005.53 1005.11 1004.46 1004.02 1003.71 1003.32 1003.31 1002.55 1001.81 1001.73 1001.15 1000.07 999.91 999.60 999.54 999.12 998.93 998.81 998.98 999.36 999.65 1001.12 1002.23 1003.11 1004.06 1005.66 1006.47 1006.87 1007.61 1008.05 1008.47 1008.83 1009.42 1009.86 1010.63 1011.01 1011.33 1011.63 1011.57 1011.71 1011.77 1011.64 1011.66 1011.75 1012.11 1012.10 1012.35 1012.28 1012.57
1005.55 1004.83 1003.43 1002.45 1002.32 1002.15 1002.87 1001.26 1001.11 1001.23 1001.02 1000.12 999.74 999.24 998.78 998.51 998.56 998.66 998.99 999.01 999.71 1001.51 1002.59 1003.57 1004.25 1005.49 1006.44 1006.79 1007.54 1007.83 1008.21 1008.57 1008.90 1009.33 1010.28 1010.99 1011.37 1011.56 1011.95 1011.60 1011.73 1011.56 1011.69 1011.89 1011.83 1011.82 1012.02 1012.57 1013.04
1004.30 1003.05 1002.07 1001.20 1001.06 1001.31 1001.90 1000.71 1000.38 1000.21 999.50 998.86 998.95 998.71 998.33 998.01 997.93 998.19 998.59 999.07 999.35 1001.50 1003.17 1004.04 1004.79 1005.57 1006.46 1006.86 1007.35 1007.60 1008.10 1008.28 1008.52 1008.86 1009.63 1010.81 1011.10 1011.36 1011.53 1011.43 1011.47 1011.77 1011.88 1011.71 1012.20 1012.88 1013.18 1013.58 1013.74
1002.73 1001.79 1000.96 1000.89 1000.73 1000.73 1000.57 1000.31 999.83 999.42 998.44 997.53 997.43 997.57 997.25 997.13 997.10 997.69 998.19 998.81 999.22 1001.26 1003.03 1004.05 1004.87 1005.56 1006.30 1006.75 1007.20 1007.23 1008.01 1008.20 1008.21 1008.76 1009.13 1010.50 1010.84 1011.23 1011.76 1011.27 1011.66 1012.21 1012.23 1012.56 1013.51 1014.11 1014.26 1014.49 1014.87
1003.56 1002.91 1001.80 1001.27 1000.88 1001.26 1000.61 999.84 999.52 998.76 998.38 997.27 996.43 996.56 996.75 996.47 996.60 996.85 997.56 998.42 998.82 1000.65 1002.60 1003.83 1004.71 1005.36 1006.04 1006.50 1006.75 1006.69 1007.24 1007.88 1008.17 1008.69 1009.29 1010.30 1010.62 1011.15 1011.78 1011.50 1012.43 1013.55 1014.02 1014.27 1014.47 1014.45 1014.61 1014.70 1014.97
1003.74 1003.16 1002.11 1001.48 1001.07 1001.10 1000.10 999.41 999.37 999.01 998.37 997.57 996.73 996.24 996.05 996.23 996.37 996.28 996.70 997.49 998.22 1000.37 1002.21 1003.31 1004.13 1004.87 1005.68 1006.32 1006.42 1006.36 1006.75 1007.46 1008.03 1008.77 1009.70 1010.24 1010.67 1011.31 1011.71 1012.40 1013.13 1013.83 1014.11 1014.36 1014.74 1015.17 1015.03 1015.25 1015.18
1003.36 1003.11 1002.57 1001.97 1001.33 1000.77 1000.97 999.59 998.36 998.03 997.99 997.69 996.98 996.50 996.17 996.05 995.84 995.81 996.09 996.60 998.01 1000.19 1001.53 1002.67 1003.52 1004.40 1005.30 1005.85 1005.95 1006.29 1006.78 1007.42 1008.15 1009.34 1010.05 1010.51 1010.88 1011.46 1011.80 1012.45 1013.25 1013.94 1014.57 1015.17 1015.63 1015.79 1015.83 1015.47 1015.30
1002.53 1003.16 1002.92 1002.74 1002.22 1000.83 1000.45 998.68 997.67 996.54 996.27 996.31 996.33 996.23 996.21 995.67 995.29 995.18 995.55 995.99 997.73 999.75 1001.10 1001.99 1002.98 1003.86 1004.82 1005.29 1005.37 1006.04 1006.47 1007.30 1008.36 1009.39 1010.91 1011.41 1011.67 1012.06 1012.59 1013.28 1013.99 1014.50 1014.57 1014.95 1015.69 1015.90 1015.89 1015.67 1015.51
1003.17 1003.04 1003.50 1003.27 1002.70 1002.11 1000.00 999.16 995.65 995.64 994.30 994.10 994.40 994.90 995.07 994.99 994.78 994.58 994.50 995.11 997.68 999.33 1000.70 1001.38 1002.66 1003.23 1004.07 1004.97 1005.45 1006.38 1006.76 1008.44 1009.83 1010.76 1011.39 1011.80 1012.32 1012.83 1013.33 1013.82 1014.36 1014.86 1015.01 1015.74 1016.08 1016.43 1016.25 1016.00 1015.73
1003.63 1004.33 1003.88 1003.49 1003.22 1001.55 999.08 998.63 995.18 994.35 993.10 992.48 992.53 992.90 993.51 993.96 994.05 994.09 993.74 994.62 997.18 998.74 1000.25 1001.36 1002.56 1002.57 1003.87 1004.15 1005.54 1006.81 1007.78 1009.05 1009.59 1010.80 1011.69 1012.28 1012.72 1013.48 1013.79 1014.31 1014.86 1014.97 1015.15 1015.60 1015.89 1016.56 1016.46 1016.25 1016.45
1003.43 1004.64 1004.21 1003.70 1002.77 998.82 997.75 996.90 994.13 992.89 992.22 991.41 991.17 991.38 991.86 992.71 992.92 993.12 993.25 993.89 995.71 997.41 998.85 1000.24 1001.29 1002.43 1003.37 1004.17 1006.15 1007.66 1007.96 1008.52 1009.58 1010.89 1011.73 1012.51 1013.12 1013.77 1014.63 1015.08 1015.47 1015.71 1015.93 1016.10 1016.19 1016.69 1016.53 1016.82 1017.00
1004.33 1005.41 1004.76 1002.94 1000.83 998.38 996.26 994.60 992.73 992.82 992.13 991.08 990.98 990.46 990.60 991.32 991.79 991.35 991.95 993.15 994.61 996.47 997.65 998.45 999.96 1001.49 1002.75 1004.52 1006.17 1007.06 1007.83 1008.55 1009.87 1011.01 1011.59 1012.31 1013.29 1014.29 1014.92 1015.26 1015.52 1016.06 1016.17 1016.19 1016.70 1016.66 1016.89 1017.23 1017.14
1004.96 1005.19 1004.68 1004.17 1002.08 999.73 996.42 994.87 992.81 991.78 991.26 991.17 991.18 990.39 989.73 990.33 989.98 990.61 991.41 993.75 995.55 996.72 997.87 998.67 999.48 1000.72 1002.82 1004.26 1005.40 1006.70 1007.41 1008.66 1010.01 1010.94 1011.61 1012.94 1013.91 1014.76 1015.15 1015.57 1015.91 1016.25 1016.55 1016.59 1016.57 1016.85 1017.42 1017.57 1017.37
1004.42 1005.02 1005.45 1004.26 1001.55 998.97 996.83 994.82 993.20 991.77 991.35 991.19 990.83 990.84 989.49 988.57 989.67 989.73 991.79 994.83 995.78 996.18 997.84 999.27 1000.21 1000.82 1002.53 1004.20 1005.61 1006.31 1007.63 1009.08 1010.29 1011.29 1012.44 1013.14 1013.94 1014.76 1015.23 1015.74 1016.28 1016.60 1016.81 1016.99 1017.05 1017.22 1017.81 1017.74 1017.45
1003.99 1004.55 1004.28 1002.92 1001.15 998.85 996.39 994.28 993.97 993.33 992.29 990.72 990.73 990.40 988.57 988.16 989.05 989.11 992.56 994.60 995.80 996.56 998.17 999.82 1000.22 1000.68 1003.05 1005.01 1006.03 1006.93 1008.33 1009.76 1010.89 1011.82 1012.72 1013.52 1014.37 1015.02 1015.44 1015.94 1016.28 1016.61 1016.95 1017.13 1017.46 1017.87 1017.82 1017.71 1017.69
1001.63 1002.32 1002.54 1001.75 999.83 998.15 996.86 994.80 995.53 994.74 993.83 992.35 990.54 989.66 988.41 988.37 988.80 990.34 993.71 995.10 993.87 994.34 998.56 1000.35 1000.51 1001.53 1003.92 1005.51 1006.60 1007.71 1008.79 1010.31 1011.28 1012.39 1013.23 1014.09 1014.68 1015.25 1015.66 1016.15 1016.59 1016.81 1017.16 1017.41 1017.77 1017.71 1017.54 1017.50 1017.65
Wind_Speed
13 13 10 8 9 10 20 22 21 19 11 7 10 9 10 10 8 6 10 8 13 20 20 18 14 16 18 19 19 19 18 18 18 17 15 15 15 13 13 12 11 12 13 12 10 9 9 8 8
13 8 8 8 11 17 17 22 23 17 8 1 5 7 13 10 5 14 11 12 18 21 20 19 16 17 18 18 18 18 18 18 18 17 15 14 14 13 12 11 11 12 12 11 10 9 8 8 7
14 11 10 8 17 20 20 22 19 16 12 5 12 8 7 3 8 6 14 17 20 20 20 19 18 18 18 19 18 18 18 18 18 17 16 15 13 13 12 10 10 11 11 10 9 8 8 7 6
8 8 9 15 23 23 27 25 27 6 10 11 14 7 4 9 2 3 16 18 20 19 21 21 19 18 18 19 19 19 19 18 17 16 16 15 13 12 10 9 9 9 9 8 8 8 7 6 5
11 9 14 19 26 27 23 16 24 9 16 17 15 14 5 11 5 8 14 16 18 19 19 19 18 18 19 19 19 19 18 18 18 16 15 14 13 11 10 9 9 8 8 8 7 6 5 5 4
10 11 18 21 27 25 24 25 16 21 12 20 21 17 9 15 9 11 12 16 17 18 20 19 17 18 17 19 19 18 18 17 17 16 15 13 12 11 10 9 9 8 7 7 6 6 5 4 4
19 16 22 27 26 25 25 21 18 18 18 19 12 14 16 10 11 11 12 14 16 18 19 18 17 17 15 16 18 18 18 17 16 15 13 12 11 10 10 8 8 8 7 6 6 5 4 4 3
16 17 30 26 23 29 23 19 17 18 22 19 12 13 10 12 12 10 14 16 18 17 19 18 16 18 16 14 14 15 16 16 16 14 13 12 12 10 9 8 8 7 6 5 5 5 5 4 4
17 19 22 30 30 21 20 25 12 10 19 22 21 13 7 10 5 11 14 17 17 17 19 19 19 16 17 16 14 14 14 14 15 15 13 12 10 10 11 7 12 8 7 6 6 5 5 6 11
19 18 28 26 23 22 25 22 24 11 20 20 22 21 18 10 9 10 13 16 19 20 21 19 18 16 15 13 13 12 13 11 12 12 13 10 9 9 8 11 10 8 7 7 7 7 8 10 10
19 22 24 27 23 23 26 25 23 17 22 18 18 20 22 12 14 13 14 16 19 20 17 21 18 16 18 14 11 7 8 8 8 13 11 10 8 7 7 6 7 7 9 8 9 8 8 9 5
18 21 24 24 25 29 22 22 23 21 19 19 11 17 18 19 12 15 16 16 20 21 20 20 20 15 14 12 11 12 9 9 7 7 10 5 5 6 8 6 8 7 8 7 5 6 2 2 4
15 16 19 19 20 26 24 21 21 25 22 16 22 15 17 6 12 12 15 14 14 18 19 21 18 15 11 13 11 11 10 10 11 10 11 7 8 6 6 5 5 6 7 6 6 4 3 5 6
16 17 16 14 18 22 24 27 22 28 23 20 21 21 16 15 16 15 16 15 10 13 16 20 21 16 15 12 11 9 8 10 9 10 10 8 5 5 6 5 6 5 4 6 4 5 4 6 2
12 18 19 20 21 22 23 27 32 29 27 24 21 24 22 21 19 18 16 16 13 10 17 16 18 19 15 14 11 9 10 10 9 9 12 11 8 7 7 6 7 6 5 4 2 2 6 5 1
19 19 19 19 24 22 20 26 29 29 30 30 27 22 20 24 24 20 16 17 14 10 18 11 11 16 16 13 12 10 10 10 9 9 9 10 9 8 6 6 5 6 4 6 7 6 2 1 3
17 17 21 22 21 14 17 25 24 24 27 31 29 26 24 22 20 21 18 14 17 14 17 15 11 15 15 14 12 10 12 9 9 8 9 10 9 8 6 5 6 3 5 4 4 4 3 3 1
19 18 17 15 15 14 18 22 21 20 25 25 27 29 24 24 23 20 17 17 17 22 17 17 13 13 15 13 9 10 11 8 8 8 7 11 8 8 6 5 4 2 4 3 6 0 6 5 5
21 24 25 22 20 12 19 21 21 17 21 25 25 20 20 21 19 21 21 20 19 23 22 18 18 15 12 13 11 10 11 9 9 8 10 10 8 8 6 4 7 8 8 6 5 4 4 4 6
23 25 26 25 21 20 24 23 20 19 22 22 21 17 18 18 18 19 20 22 21 22 20 18 20 17 13 11 10 10 10 10 9 8 8 8 8 8 7 9 9 9 8 8 7 5 3 3 5
21 24 24 25 24 20 21 26 26 21 26 26 26 23 20 21 21 19 20 22 22 20 21 20 20 18 15 15 10 8 9 8 8 9 8 7 9 8 9 10 9 8 5 6 6 4 2 2 4
25 21 25 17 20 17 19 21 26 26 27 28 27 26 25 25 21 20 22 23 23 19 20 20 19 19 14 15 13 14 11 12 8 9 8 9 10 10 9 9 9 8 5 7 5 3 3 2 1
17 14 16 19 21 19 28 16 23 26 29 28 29 29 28 26 22 23 24 24 21 21 20 20 20 21 17 13 13 12 9 10 8 10 13 9 7 8 9 9 8 7 6 6 5 3 3 3 2
13 15 17 18 14 17 25 22 22 20 24 20 23 30 29 29 27 25 22 25 23 22 23 20 23 20 19 17 16 14 18 15 13 12 9 6 6 6 8 9 9 8 8 7 6 5 6 6 5
16 10 6 8 12 21 15 18 23 17 28 22 19 24 29 29 27 26 26 25 25 27 29 25 23 22 20 18 18 18 18 17 15 12 9 10 8 8 9 8 7 5 7 6 7 6 7 6 4
11 12 7 9 15 18 21 23 22 24 24 17 17 22 25 30 27 29 30 28 30 30 29 27 26 24 20 19 20 17 17 12 10 12 11 9 10 9 9 8 9 8 7 8 5 5 5 4 4
2 11 17 16 20 18 17 5 23 17 14 20 18 19 22 30 29 29 32 20 28 29 25 26 27 24 22 21 17 16 13 16 13 15 11 10 11 9 10 10 9 8 8 7 5 6 4 2 3
13 2 4 4 7 15 10 20 14 19 18 17 16 20 24 28 29 29 22 21 30 27 24 25 24 23 22 21 18 13 17 15 14 13 13 12 11 11 10 10 9 8 7 6 4 4 3 3 3
6 4 10 12 11 11 16 12 12 16 17 13 17 24 26 26 29 26 12 19 15 24 23 23 22 24 21 17 18 18 18 17 14 13 12 13 12 11 11 9 8 8 7 6 5 4 4 4 4
16 19 18 11 13 14 16 19 11 16 18 19 15 23 21 26 27 16 22 20 7 28 21 21 19 19 19 19 20 19 17 15 14 13 14 13 12 11 10 9 8 7 7 5 4 4 4 3 5
Wind_Direction
256 237 239 252 243 232 248 238 249 256 215 255 286 292 253 356 355 44 119 149 138 136 150 155 147 150 147 148 148 145 144 141 141 143 146 147 145 141 133 131 130 131 133 133 130 125 126 124 119
246 234 238 267 242 245 241 235 252 236 244 198 260 250 255 257 43 120 145 147 150 143 153 158 149 151 151 149 145 144 143 142 142 144 150 149 147 142 137 136 134 132 132 134 133 129 121 113 112
258 233 251 228 235 245 256 252 227 236 227 198 243 238 299 331 61 72 99 153 148 154 158 143 152 151 150 147 143 143 143 145 144 148 151 152 148 145 140 136 131 133 132 131 128 118 114 121 128
220 207 252 253 246 233 248 268 279 268 202 213 235 243 200 55 40 79 143 155 149 157 161 137 150 149 151 145 144 144 146 145 146 151 152 151 150 144 133 131 129 132 130 124 116 119 128 131 136
243 249 235 237 243 252 264 250 268 229 263 231 219 227 193 117 107 119 152 163 159 157 157 151 147 148 152 148 145 145 146 146 150 152 153 151 146 138 131 132 129 131 130 126 124 126 136 145 148
224 237 240 240 244 246 243 255 233 269 244 258 238 228 229 112 144 143 159 162 164 157 137 151 148 150 151 147 145 145 145 148 151 153 150 144 138 134 131 129 131 133 129 132 139 143 153 154 181
244 232 244 250 257 252 239 231 226 244 239 245 249 254 240 143 115 148 161 163 166 157 141 155 162 147 148 148 146 146 147 148 150 148 142 135 132 130 130 133 134 131 134 144 149 157 168 180 204
244 253 259 250 251 258 263 249 213 243 246 250 247 225 261 93 131 149 162 165 158 153 150 162 164 163 163 155 141 142 146 148 144 141 135 131 129 133 138 137 141 137 143 152 162 174 188 199 227
240 248 248 248 255 256 263 265 235 214 254 248 247 192 225 98 153 173 165 166 165 160 157 165 166 165 167 157 146 137 146 142 138 136 135 147 176 175 160 116 136 145 153 166 174 190 199 226 237
232 245 248 262 267 267 269 262 256 223 236 247 241 250 243 146 186 199 186 175 173 169 162 166 167 161 163 151 151 159 159 167 171 169 169 187 176 190 190 126 140 156 171 187 195 205 220 233 249
244 247 267 278 279 283 279 283 254 236 243 233 238 226 234 187 191 205 200 193 178 173 166 167 168 167 165 151 165 156 166 160 170 174 179 211 164 163 179 146 171 180 194 200 196 197 226 223 339
251 258 267 279 286 284 290 275 269 270 257 267 247 245 235 205 216 211 209 204 182 174 169 165 166 171 166 144 174 159 166 165 162 176 189 206 178 159 217 181 185 202 170 229 202 210 36 284 234
267 271 274 271 263 271 275 262 267 271 277 269 276 261 245 225 235 211 227 218 197 171 168 168 161 171 164 151 179 167 167 170 169 170 191 182 209 171 195 194 212 187 200 176 215 251 210 226 212
280 288 285 280 282 265 255 260 259 259 263 255 261 263 257 247 231 246 208 228 184 149 173 172 163 168 174 174 175 161 168 165 169 169 182 189 237 156 201 183 232 208 239 228 211 211 224 224 0
280 269 270 256 251 252 261 254 250 256 259 248 234 247 253 257 245 234 239 212 193 157 162 182 165 163 174 173 167 172 164 170 176 178 166 197 215 159 242 217 222 214 221 283 239 251 207 249 114
265 262 266 262 238 235 230 255 250 246 247 250 250 252 257 233 233 234 222 218 175 123 156 152 170 163 171 170 172 180 163 176 183 172 161 193 198 170 217 212 211 225 233 203 235 228 240 48 54
242 252 256 267 230 215 245 258 252 253 257 231 238 238 243 241 234 223 219 223 179 136 160 146 173 163 166 168 174 182 149 193 182 175 164 182 189 177 216 230 201 190 239 238 45 10 346 78 354
277 276 269 253 262 248 241 258 266 251 260 242 229 231 230 234 226 217 217 215 195 146 156 154 174 175 169 166 171 179 147 195 176 177 171 156 191 181 206 210 108 228 258 23 45 44 47 31 1
273 277 279 281 287 257 261 274 278 271 242 269 225 213 234 232 232 221 211 209 195 152 158 165 181 181 167 168 176 170 159 183 173 175 137 153 184 176 180 227 76 66 70 62 76 136 86 70 6
269 267 267 273 261 265 264 258 254 256 267 256 253 238 227 228 232 226 211 208 175 161 159 167 182 168 166 162 181 176 167 169 161 146 146 166 154 148 169 105 121 124 122 112 94 45 90 44 42
267 263 265 273 272 262 277 278 258 245 247 242 251 247 242 236 227 217 208 198 158 163 165 172 179 157 168 165 189 154 152 139 152 126 157 141 144 138 144 144 137 137 86 96 81 69 39 24 58
255 248 261 298 286 271 260 262 259 249 233 232 231 230 232 238 230 221 204 189 162 170 172 169 162 151 167 179 157 162 158 165 119 143 115 132 145 143 132 125 125 124 138 126 111 75 76 338 346
294 286 277 257 257 271 259 260 256 249 234 221 221 220 224 224 226 226 208 175 167 174 171 166 145 154 164 168 158 164 139 109 122 143 150 145 126 116 137 130 115 117 108 101 107 152 163 125 67
251 249 264 274 267 251 247 245 257 247 257 229 226 211 214 216 220 219 219 167 173 182 164 155 159 161 158 159 158 130 133 142 140 155 143 122 126 119 88 105 108 131 127 124 109 121 94 69 51
238 257 232 233 219 244 247 228 242 243 244 247 229 222 206 210 215 207 211 172 177 181 165 161 160 147 159 135 143 152 148 144 146 152 113 141 140 119 107 112 129 108 100 95 99 76 74 63 62
272 217 246 265 244 251 241 233 231 244 254 237 252 226 211 206 209 206 206 181 178 168 161 154 149 153 146 144 152 146 142 147 122 124 146 138 97 113 123 110 104 116 109 104 118 94 78 63 69
3 226 254 260 263 272 269 225 287 263 263 223 238 264 224 198 210 206 208 160 174 162 150 149 151 147 141 150 141 144 148 127 131 139 127 104 119 132 126 113 102 99 95 98 100 81 72 71 47
198 221 230 199 246 254 252 259 255 241 219 233 225 233 245 202 204 208 200 149 200 146 140 148 144 139 144 134 142 136 124 121 124 118 122 134 125 120 117 113 115 111 102 84 68 127 106 57 44
175 215 233 268 251 271 277 261 37 340 327 231 216 227 230 195 202 207 136 130 180 138 139 137 144 136 130 122 120 116 122 122 123 127 124 125 119 120 116 114 111 101 87 77 73 78 94 84 92
223 231 227 245 256 259 261 261 50 292 314 307 222 221 227 196 194 170 109 114 230 129 128 137 132 108 119 118 119 121 121 117 122 118 120 122 116 109 108 106 98 87 81 83 96 74 77 56 54